BEIDOU 7

Last updated on Jan. 16, 2021, 6:28 a.m. UTC

1 37256U 10068A   21015.86949682 -.00000210  00000-0  00000-0 0  9993
2 37256  51.1226 295.8136 0082597 217.2151  30.3271  1.00305726 36960
UTC
Height (km)
Latitude
Longitude
Inclination
Orbital Period
UTC large
Height (km)
Speed (km/s)
/
Latitude / Longitude
Inclination (degrees)
Orbital Period (minutes)
Azimuth
Elevation
Range (km)
Doppler Factor
iOS Compass Heading
iOS Angle

Next 30 passes for location: Hong Kong

Rise time Rise Azimuth (degrees) Set time Set Azimuth (degrees) Duration Max altitude (degrees)

No matching passes for this satellites